Dewpoint
55 56 56 57 55 51 47 43 36 47 48 35 35 33 30 32 32 33 32 28 25 25 25 24 21 21 22 31 29 28 27 24 21 21 26 28 26 25 22 18 15 17 13 15
55 55 55 56 53 50 45 39 39 47 45 30 31 32 31 32 31 31 31 31 30 30 26 24 24 24 31 32 30 27 29 24 17 17 21 24 24 24 22 21 21 18 12 15
55 55 54 54 52 48 44 37 31 36 42 38 33 32 32 31 33 31 33 32 32 30 29 29 26 27 32 33 33 36 32 24 21 14 16 23 22 22 23 21 18 18 18 18
55 55 54 53 51 48 43 38 34 37 31 34 35 33 33 32 31 33 32 30 31 29 27 27 28 29 31 33 32 32 29 24 23 25 24 26 25 24 24 22 22 20 19 20
54 54 53 52 50 48 41 35 35 36 35 35 35 34 32 30 34 32 31 29 30 29 27 27 27 30 30 32 30 31 32 27 27 24 25 25 24 23 23 23 23 22 21 21
54 53 52 51 50 45 40 41 41 37 35 34 33 32 31 33 34 33 32 31 30 29 31 32 32 31 31 31 31 28 29 28 24 19 22 19 15 18 21 20 24 22 20 22
53 53 52 51 49 44 42 41 40 34 29 32 31 34 34 33 33 32 34 32 31 31 25 25 23 23 24 27 28 31 28 27 25 19 19 12 14 20 22 22 22 18 19 23
52 51 50 50 47 45 42 41 39 33 26 31 32 33 33 32 33 33 33 33 26 23 20 20 18 19 20 20 22 23 30 28 23 18 17 16 16 17 17 18 15 15 16 18
49 48 48 48 48 46 41 39 39 37 28 26 28 29 30 29 29 30 26 21 22 22 20 19 16 12 15 14 20 23 24 28 25 20 15 11 14 18 15 19 14 14 13 17
47 47 47 47 47 46 41 39 38 33 29 20 24 26 26 26 24 24 22 20 19 22 19 16 16 16 17 12 13 19 21 22 20 20 18 17 14 11 16 12 12 12 11 15
44 44 44 44 45 45 40 37 38 28 23 24 23 20 21 21 23 20 20 20 20 21 19 16 16 17 14 12 13 18 17 17 17 19 18 13 7 7 10 4 7 8 8 9
44 44 43 42 41 43 38 34 37 35 28 27 31 30 29 26 21 20 19 20 18 21 19 17 16 13 12 10 8 10 10 18 16 18 16 9 6 4 6 9 6 7 7 9
40 40 41 42 41 37 35 34 34 31 28 25 24 23 25 27 25 23 19 20 21 19 19 18 17 11 13 8 8 8 8 9 6 3 5 7 5 4 4 6 5 7 10 10
40 40 40 39 39 39 37 33 34 30 28 22 20 23 21 23 26 25 22 22 22 22 21 18 16 14 16 10 9 8 7 9 4 6 4 1 1 1 3 7 10 11 12 11
40 40 40 40 39 38 35 34 34 32 25 22 20 22 24 22 26 26 25 23 22 20 15 11 13 17 15 14 13 9 9 6 3 1 1 3 6 9 10 11 12 14 15 15
40 39 38 37 36 35 29 24 30 34 29 23 20 23 21 22 23 22 23 25 24 21 17 14 17 19 14 8 7 12 11 11 9 9 10 10 11 12 13 14 19 20 20 19
38 38 38 38 38 35 29 25 31 33 29 22 18 21 20 21 23 24 23 23 23 21 20 17 18 18 19 9 8 10 9 9 10 13 14 16 16 16 18 19 19 21 21 21
39 38 37 36 35 34 32 33 33 29 25 22 12 15 17 18 17 15 23 19 17 17 19 21 19 17 16 6 14 14 16 18 17 16 17 17 18 18 18 19 19 19 20 20
37 35 34 32 31 29 32 33 31 30 25 16 15 11 10 19 18 19 17 17 8 20 13 18 19 15 9 14 14 16 17 15 15 17 17 17 17 18 18 19 19 19 19 19
33 31 26 25 32 34 28 22 20 18 17 15 16 18 12 16 16 15 13 14 15 3 14 21 18 15 18 21 22 18 16 17 18 15 16 16 17 18 18 19 19 20 20 21
29 25 26 30 26 23 15 6 6 4 4 17 17 15 13 19 11 12 18 5 9 2 10 15 14 14 12 13 12 15 17 17 18 19 19 20 19 20 21 21 20 21 21 21
27 26 24 20 12 3 1 -4 5 7 8 16 12 11 15 15 21 12 16 8 10 -2 11 9 6 13 17 17 15 16 17 17 18 18 18 19 20 21 22 22 22 22 23 24
22 14 4 6 0 -6 -14 -11 -7 -1 7 8 8 6 9 10 10 8 14 4 5 14 7 5 7 16 16 14 14 15 17 16 17 18 19 19 21 22 22 23 23 24 26 26
8 -3 -8 -8 -9 -7 -1 1 4 11 14 13 10 9 9 8 9 6 8 9 11 -1 -7 -0 11 13 15 15 16 16 15 16 17 17 18 20 21 20 22 24 26 27 26 27
5 -1 -10 -6 4 -2 -3 -3 8 15 15 13 10 9 12 8 0 3 6 -1 -6 -1 -2 11 14 15 15 15 15 15 15 16 17 18 19 20 20 21 22 25 26 28 28 28
2 -0 -2 11 4 1 2 3 6 15 14 17 11 -3 -0 -2 2 0 -4 -5 -7 2 13 16 15 15 15 14 14 14 16 17 17 18 20 20 21 21 23 25 27 29 27 26
-0 2 13 8 5 3 4 3 5 11 12 3 2 -2 -2 -0 -5 -4 2 -1 5 9 13 15 15 13 13 14 14 15 16 16 18 19 19 20 21 24 24 24 26 28 30 30
Lifted_Index
5 5 4 4 4 5 6 4 4 8 9 6 4 4 4 5 5 5 6 6 6 7 7 7 8 9 9 9 9 9 8 7 6 6 6 7 6 6 6 5 4 4 4 3
6 6 5 4 4 5 5 3 4 7 9 6 4 4 4 5 5 6 7 7 8 8 8 8 9 9 9 9 8 8 8 7 5 5 6 6 6 6 6 5 5 4 4 3
6 6 6 5 5 5 5 3 3 5 7 6 5 5 4 5 6 7 9 9 9 10 9 9 9 9 9 8 8 8 7 7 6 5 5 6 6 6 5 5 5 4 4 4
6 6 6 6 6 6 5 3 3 4 5 5 6 5 5 5 6 8 10 10 10 10 9 9 9 9 9 8 8 7 7 7 6 5 6 6 6 6 5 5 5 4 4 4
5 5 6 6 6 6 6 4 4 4 4 5 5 6 6 6 7 9 10 10 10 10 10 10 10 9 9 8 8 7 6 6 6 5 6 6 6 6 6 5 5 5 5 5
5 5 6 6 7 7 6 6 6 5 4 5 5 6 7 7 8 9 10 10 10 10 10 10 10 10 9 9 8 7 6 6 5 5 5 5 5 6 6 6 5 5 5 5
5 5 6 6 8 8 8 8 7 5 4 4 5 7 8 8 9 10 10 10 10 10 10 10 10 10 10 9 9 8 7 6 5 4 4 4 5 6 6 6 6 6 6 5
5 5 6 7 8 9 9 9 8 6 5 5 7 8 9 9 10 10 10 10 10 10 11 10 9 9 9 9 9 8 7 7 5 4 3 4 5 7 7 6 6 6 6 5
6 6 7 8 9 10 10 10 9 8 7 7 8 9 9 9 10 10 10 10 10 10 10 10 8 7 8 8 8 8 7 6 5 4 3 4 6 7 7 6 6 6 6 5
6 7 8 9 9 10 10 10 10 9 9 9 10 9 9 10 10 10 10 10 10 10 10 9 8 7 8 7 7 7 6 6 5 4 4 4 6 7 6 6 6 7 7 6
7 8 9 10 10 10 11 10 10 10 10 10 11 11 10 10 11 11 11 11 11 10 10 9 9 8 8 8 7 6 6 6 5 5 5 5 7 7 7 7 8 8 8 8
9 9 10 10 11 11 10 10 10 10 11 11 12 12 12 12 12 11 11 12 12 11 11 10 10 9 9 8 7 8 7 7 7 6 6 6 8 8 9 10 10 10 9 9
10 10 10 10 10 10 10 10 10 11 11 12 12 13 13 13 13 13 12 12 12 12 11 11 11 10 10 9 8 9 9 9 8 8 7 8 9 10 10 11 11 11 10 10
9 9 9 10 10 11 11 11 11 12 12 12 12 14 14 14 14 14 13 13 12 12 12 12 11 11 11 10 10 10 10 10 9 9 9 10 10 11 11 11 11 11 11 11
8 8 9 10 11 11 12 12 12 13 12 12 12 14 14 15 14 14 13 13 13 13 12 12 12 12 12 11 11 11 11 11 11 11 11 11 11 11 11 11 11 11 11 11
9 9 9 10 11 12 12 12 13 13 13 12 12 13 14 14 14 13 13 13 13 13 13 12 12 12 12 11 10 11 12 12 12 12 12 11 11 10 9 9 9 9 9 10
9 9 10 11 12 12 12 13 13 13 13 12 12 12 13 13 13 13 13 13 13 13 13 13 12 12 12 11 10 11 12 12 12 11 11 10 9 8 8 8 8 8 8 8
10 10 11 11 12 12 13 13 13 13 13 12 12 12 12 13 13 13 13 13 13 13 12 12 12 12 12 11 11 11 11 11 10 9 9 9 8 8 7 7 7 7 7 7
10 11 11 12 12 12 13 13 13 13 13 13 12 12 12 13 13 13 13 13 12 12 12 12 12 11 11 11 11 10 10 9 9 8 8 8 8 7 7 7 8 8 8 8
11 11 12 12 12 12 13 13 13 13 13 13 12 12 12 12 13 13 12 12 11 11 11 11 11 10 10 10 9 9 9 9 8 8 8 8 8 8 8 8 8 9 9 9
12 12 12 12 13 13 12 12 12 12 12 12 12 12 12 12 12 12 12 11 11 10 10 10 9 8 9 9 8 8 8 8 8 9 9 9 8 8 8 9 9 9 9 9
12 12 12 12 12 12 11 11 11 11 11 11 11 11 11 11 11 11 11 10 10 9 9 8 7 7 8 8 8 8 8 9 9 9 9 9 9 9 9 9 9 8 8 8
12 12 11 11 11 11 10 10 10 10 11 11 11 10 10 10 10 10 10 9 9 8 7 7 6 7 7 7 8 8 8 9 9 9 9 9 9 9 9 9 8 8 7 6
11 11 10 10 10 10 10 10 10 10 10 10 10 10 10 10 9 9 9 8 8 7 6 5 6 6 7 8 8 9 9 9 10 10 9 9 10 9 9 8 7 6 6 5
10 10 10 10 10 10 10 9 9 9 9 9 9 9 9 9 8 8 8 7 6 6 5 5 6 7 7 8 9 9 9 10 10 10 10 10 10 9 8 7 6 5 5 5
10 9 9 9 9 9 9 9 9 9 8 8 8 8 8 7 7 7 7 6 6 6 6 6 7 7 8 9 10 10 10 10 10 10 10 10 10 9 8 6 5 5 5 5
9 9 9 9 9 9 9 8 8 8 8 7 7 7 7 7 6 6 6 6 6 6 6 7 7 8 9 10 10 10 10 10 10 10 10 10 10 9 7 6 5 4 5 5